Regional Weather Roundup
Issued by NWS

Home | Current Version | Previous Version | Graphics & Text | Print | Product List | Glossary Off
Versions: 1 2 3 4 5 6 7 8 9 10 11 12 13 14 15 16 17 18 19 20 21 22 23 24 25 26 27 28 29 30 31 32 33 34 35 36 37 38 39 40 41 42 43 44 45 46 47 48 49 50

000
ASUS45 KCYS 281910
RWRWY

WYOMING REGIONAL WEATHER ROUNDUP
NATIONAL WEATHER SERVICE CHEYENNE WY
1200 PM MST SAT FEB 28 2015

NOTE:  "FAIR" INDICATES FEW OR NO CLOUDS BELOW 12,000 FEET
WITH NO SIGNIFICANT WEATHER AND/OR OBSTRUCTIONS TO VISIBILITY.

WYZ001-282000-
YELLOWSTONE NATIONAL PARK

CITY           SKY/WX    TMP DP  RH WIND       PRES   REMARKS
LK YELLOWSTONE   N/A     15   1  53 SE3       29.81F
W YELLOWSTONE  NOT AVBL

$$
WYZ002>013-054>058-071-098>099-282000-
NORTHERN WYOMING

CITY           SKY/WX    TMP DP  RH WIND       PRES   REMARKS
JACKSON        MOSUNNY   19  10  68 NE7       29.82S WCI  10
CODY           CLOUDY    16  12  86 N8        30.00F WCI   5
GREYBULL       CLOUDY    23   8  52 CALM      30.06F
WORLAND        CLOUDY    22  10  60 W6        30.05S WCI  14
SHERIDAN       CLOUDY    17   7  64 W7        30.11S WCI   8
BUFFALO        CLOUDY    15   6  67 N6        30.04F WCI   6
GILLETTE       CLOUDY    17   7  64 NW9       30.06F WCI   6
HULETT         CLOUDY    18   9  68 W5        30.08S WCI  11
NEWCASTLE      FAIR      23   7  50 NW15      30.06S WCI  10

$$
WYZ014>020-022>026-101>103-282000-
CENTRAL WYOMING

CITY           SKY/WX    TMP DP  RH WIND       PRES   REMARKS
BIG PINEY      CLOUDY    22  13  68 CALM      29.82S
PINEDALE       CLOUDY    23  14  68 CALM      29.82S
DUBOIS         FAIR      18   9  68 SE9       29.84F WCI   6
LANDER         LGT SNOW  20  13  74 E5        29.95S WCI  13
RIVERTON       CLOUDY    18   8  65 NE12      29.97S WCI   5
CASPER         CLOUDY    17   7  64 NE9       29.99S WCI   6
DOUGLAS        CLOUDY    18   8  65 CALM      30.03F

$$
WYZ021-027>030-104>119-282000-
SOUTHERN WYOMING

CITY           SKY/WX    TMP DP  RH WIND       PRES   REMARKS
EVANSTON       FAIR      25  17  72 E21       29.74S WCI  11
FORT BRIDGER   CLOUDY    25  19  78 E7        29.80S WCI  17
ROCK SPRINGS   CLOUDY    22  12  65 NE18      29.81S WCI   7
DIXON          FAIR      36  15  43 SW6       29.79F WCI  31
RAWLINS        CLOUDY    26   5  40 NE14G24   29.83F WCI  14
SARATOGA       FAIR      28  12  50 N3        29.81S
LARAMIE        FAIR      22   7  52 S18       29.81F WCI   7
CHEYENNE       PTSUNNY   19   9  65 NE9       29.92S WCI   8
TORRINGTON     CLOUDY    29  11  47 N12       30.02F WCI  19
PINE BLUFFS    FAIR      25  14  63 N8        29.99R WCI  16

$$



USA.gov is the U.S. government's official web portal to all federal, state and local government web resources and services.